Time,TemperatureF,DewpointF,PressureIn,WindDirection,WindDirectionDegrees,WindSpeedMPH,WindSpeedGustMPH,Humidity,HourlyPrecipIn,Conditions,Clouds,dailyrainin,SoftwareType,DateUTC
2013-04-10 00:00:00,10.2,2.7,31.51,SE,135,0.0,3.0,71,0.00,,,0.00,meteohub,2013-04-10 06:00:00,
2013-04-10 00:06:00,10.2,2.7,31.51,SE,135,0.0,3.0,71,0.00,,,0.00,meteohub,2013-04-10 06:06:00,
2013-04-10 00:12:00,10.2,2.7,31.50,SE,135,0.0,2.0,71,0.00,,,0.00,meteohub,2013-04-10 06:12:00,
2013-04-10 00:17:00,10.0,2.5,31.50,SE,135,0.0,0.0,71,0.00,,,0.00,meteohub,2013-04-10 06:17:00,
2013-04-10 00:22:00,10.0,2.5,31.50,SE,135,0.0,0.0,71,0.00,,,0.00,meteohub,2013-04-10 06:22:00,
2013-04-10 00:27:00,9.9,2.3,31.50,SE,135,0.0,0.0,71,0.00,,,0.00,meteohub,2013-04-10 06:27:00,
2013-04-10 00:33:00,9.7,2.1,31.50,SE,135,0.0,0.0,71,0.00,,,0.00,meteohub,2013-04-10 06:33:00,
2013-04-10 00:38:00,9.3,1.8,31.50,SE,135,0.0,0.0,71,0.00,,,0.00,meteohub,2013-04-10 06:38:00,
2013-04-10 00:44:00,9.0,1.2,31.50,West,270,0.0,0.0,70,0.00,,,0.00,meteohub,2013-04-10 06:44:00,
2013-04-10 00:50:00,8.4,1.0,31.50,West,270,0.0,0.0,71,0.00,,,0.00,meteohub,2013-04-10 06:50:00,
2013-04-10 00:55:00,8.1,0.3,31.50,West,270,0.0,0.0,70,0.00,,,0.00,meteohub,2013-04-10 06:55:00,
2013-04-10 01:01:00,7.7,0.0,31.50,West,270,0.0,0.0,70,0.00,,,0.00,meteohub,2013-04-10 07:01:00,
2013-04-10 01:06:00,7.2,-0.9,31.50,West,270,0.0,0.0,69,0.00,,,0.00,meteohub,2013-04-10 07:06:00,
2013-04-10 01:12:00,6.8,-1.1,31.49,SW,225,0.0,2.0,69,0.00,,,0.00,meteohub,2013-04-10 07:12:00,
2013-04-10 01:17:00,6.6,-1.1,31.50,West,270,0.0,2.0,70,0.00,,,0.00,meteohub,2013-04-10 07:17:00,
2013-04-10 01:22:00,6.6,-1.1,31.49,SE,135,0.0,2.0,70,0.00,,,0.00,meteohub,2013-04-10 07:22:00,
2013-04-10 01:27:00,6.4,-1.3,31.49,SE,135,0.0,2.0,70,0.00,,,0.00,meteohub,2013-04-10 07:27:00,
2013-04-10 01:32:00,5.9,-2.0,31.49,SE,135,0.0,1.0,69,0.00,,,0.00,meteohub,2013-04-10 07:32:00,
2013-04-10 01:38:00,5.5,-2.4,31.49,West,270,0.0,0.0,69,0.00,,,0.00,meteohub,2013-04-10 07:38:00,
2013-04-10 01:44:00,5.2,-2.7,31.49,West,270,0.0,0.0,69,0.00,,,0.00,meteohub,2013-04-10 07:44:00,
2013-04-10 01:49:00,5.2,-2.7,31.49,West,270,0.0,0.0,69,0.00,,,0.00,meteohub,2013-04-10 07:49:00,
2013-04-10 01:55:00,5.0,-3.3,31.49,SW,225,0.0,0.0,68,0.00,,,0.00,meteohub,2013-04-10 07:55:00,
2013-04-10 02:01:00,4.8,-3.1,31.49,SW,225,0.0,0.0,69,0.00,,,0.00,meteohub,2013-04-10 08:01:00,
2013-04-10 02:07:00,4.8,-3.1,31.49,SW,225,0.0,0.0,69,0.00,,,0.00,meteohub,2013-04-10 08:07:00,
2013-04-10 02:12:00,4.6,-3.3,31.49,SW,225,0.0,0.0,69,0.00,,,0.00,meteohub,2013-04-10 08:12:00,
2013-04-10 02:17:00,5.0,-2.9,31.49,SW,225,0.0,0.0,69,0.00,,,0.00,meteohub,2013-04-10 08:17:00,
2013-04-10 02:22:00,4.8,-2.7,31.49,SW,225,0.0,0.0,70,0.00,,,0.00,meteohub,2013-04-10 08:22:00,
2013-04-10 02:27:00,4.8,-2.7,31.49,SW,225,0.0,0.0,70,0.00,,,0.00,meteohub,2013-04-10 08:27:00,
2013-04-10 02:32:00,4.5,-3.5,31.49,SW,225,0.0,0.0,69,0.00,,,0.00,meteohub,2013-04-10 08:32:00,
2013-04-10 02:38:00,4.3,-3.6,31.49,SW,225,0.0,0.0,69,0.00,,,0.00,meteohub,2013-04-10 08:38:00,
2013-04-10 02:43:00,4.1,-3.8,31.48,SW,225,0.0,0.0,69,0.00,,,0.00,meteohub,2013-04-10 08:43:00,
2013-04-10 02:49:00,4.1,-3.8,31.49,SW,225,0.0,0.0,69,0.00,,,0.00,meteohub,2013-04-10 08:49:00,
2013-04-10 02:54:00,4.1,-3.8,31.49,SW,225,0.0,0.0,69,0.00,,,0.00,meteohub,2013-04-10 08:54:00,
2013-04-10 03:00:00,3.9,-4.0,31.49,SW,225,0.0,0.0,69,0.00,,,0.00,meteohub,2013-04-10 09:00:00,
2013-04-10 03:05:00,3.9,-4.0,31.49,South,180,0.0,0.0,69,0.00,,,0.00,meteohub,2013-04-10 09:05:00,
2013-04-10 03:11:00,3.9,-4.0,31.49,South,180,0.0,0.0,69,0.00,,,0.00,meteohub,2013-04-10 09:11:00,
2013-04-10 03:17:00,4.1,-3.8,31.49,SW,225,0.0,0.0,69,0.00,,,0.00,meteohub,2013-04-10 09:17:00,
2013-04-10 03:22:00,3.9,-4.0,31.49,SW,225,0.0,0.0,69,0.00,,,0.00,meteohub,2013-04-10 09:22:00,
2013-04-10 03:27:00,4.1,-3.8,31.49,SW,225,0.0,0.0,69,0.00,,,0.00,meteohub,2013-04-10 09:27:00,
2013-04-10 03:33:00,4.1,-3.8,31.49,West,270,0.0,0.0,69,0.00,,,0.00,meteohub,2013-04-10 09:33:00,
2013-04-10 03:38:00,3.9,-4.0,31.49,West,270,0.0,0.0,69,0.00,,,0.00,meteohub,2013-04-10 09:38:00,
2013-04-10 03:43:00,4.1,-3.8,31.49,West,270,0.0,0.0,69,0.00,,,0.00,meteohub,2013-04-10 09:43:00,
2013-04-10 03:48:00,4.8,-2.7,31.49,West,270,0.0,2.0,70,0.00,,,0.00,meteohub,2013-04-10 09:48:00,
2013-04-10 03:54:00,5.5,-2.2,31.49,West,270,2.0,2.0,70,0.00,,,0.00,meteohub,2013-04-10 09:54:00,
2013-04-10 04:00:00,6.1,-1.7,31.49,NW,315,3.0,3.0,70,0.00,,,0.00,meteohub,2013-04-10 10:00:00,
2013-04-10 04:05:00,6.1,-1.7,31.49,NW,315,3.0,3.0,70,0.00,,,0.00,meteohub,2013-04-10 10:05:00,
2013-04-10 04:11:00,6.8,-0.9,31.49,West,270,1.0,3.0,70,0.00,,,0.00,meteohub,2013-04-10 10:11:00,
2013-04-10 04:16:00,6.8,-0.9,31.49,WNW,293,1.0,3.0,70,0.00,,,0.00,meteohub,2013-04-10 10:16:00,
2013-04-10 04:21:00,7.0,-0.8,31.49,West,270,2.0,3.0,70,0.00,,,0.00,meteohub,2013-04-10 10:21:00,
2013-04-10 04:27:00,7.2,-0.6,31.50,West,270,2.0,3.0,70,0.00,,,0.00,meteohub,2013-04-10 10:27:00,
2013-04-10 04:32:00,7.3,-0.4,31.50,West,270,2.0,4.0,70,0.00,,,0.00,meteohub,2013-04-10 10:32:00,
2013-04-10 04:37:00,7.5,-0.2,31.50,NW,315,2.0,4.0,70,0.00,,,0.00,meteohub,2013-04-10 10:37:00,
2013-04-10 04:42:00,7.5,-0.6,31.50,West,270,3.0,4.0,69,0.00,,,0.00,meteohub,2013-04-10 10:42:00,
2013-04-10 04:47:00,7.5,-0.6,31.50,SW,225,3.0,4.0,69,0.00,,,0.00,meteohub,2013-04-10 10:47:00,
2013-04-10 04:52:00,7.9,-0.2,31.50,West,270,6.0,6.0,69,0.00,,,0.00,meteohub,2013-04-10 10:52:00,
2013-04-10 04:58:00,8.4,0.7,31.50,West,270,2.0,6.0,70,0.00,,,0.00,meteohub,2013-04-10 10:58:00,
2013-04-10 05:03:00,8.8,0.7,31.50,West,270,4.0,6.0,69,0.00,,,0.00,meteohub,2013-04-10 11:03:00,
2013-04-10 05:09:00,9.3,1.2,31.50,West,270,4.0,6.0,69,0.00,,,0.00,meteohub,2013-04-10 11:09:00,
2013-04-10 05:14:00,9.7,1.6,31.50,West,270,4.0,5.0,69,0.00,,,0.00,meteohub,2013-04-10 11:14:00,
2013-04-10 05:20:00,9.9,1.8,31.51,SW,225,4.0,6.0,69,0.00,,,0.00,meteohub,2013-04-10 11:20:00,
2013-04-10 05:25:00,10.2,2.1,31.50,NW,315,3.0,6.0,69,0.00,,,0.00,meteohub,2013-04-10 11:25:00,
2013-04-10 05:31:00,10.4,3.4,31.50,West,270,2.0,5.0,73,0.00,,,0.00,meteohub,2013-04-10 11:31:00,
2013-04-10 05:37:00,10.6,3.4,31.50,West,270,4.0,5.0,72,0.00,,,0.00,meteohub,2013-04-10 11:37:00,
2013-04-10 05:42:00,10.8,3.6,31.51,South,180,5.0,5.0,72,0.00,,,0.00,meteohub,2013-04-10 11:42:00,
2013-04-10 05:47:00,10.9,3.4,31.51,West,270,2.0,5.0,71,0.00,,,0.00,meteohub,2013-04-10 11:47:00,
2013-04-10 05:52:00,10.9,3.4,31.51,NW,315,2.0,5.0,71,0.00,,,0.00,meteohub,2013-04-10 11:52:00,
2013-04-10 05:58:00,11.1,3.6,31.51,NW,315,8.0,8.0,71,0.00,,,0.00,meteohub,2013-04-10 11:58:00,
2013-04-10 06:04:00,11.3,3.7,31.51,NW,315,5.0,5.0,71,0.00,,,0.00,meteohub,2013-04-10 12:04:00,
2013-04-10 06:09:00,11.7,3.4,31.51,NW,315,6.0,8.0,69,0.00,,,0.00,meteohub,2013-04-10 12:09:00,
2013-04-10 06:15:00,11.7,3.2,31.52,West,270,4.0,8.0,68,0.00,,,0.00,meteohub,2013-04-10 12:15:00,
2013-04-10 06:20:00,11.8,3.4,31.52,West,270,2.0,6.0,68,0.00,,,0.00,meteohub,2013-04-10 12:20:00,
2013-04-10 06:26:00,11.7,3.2,31.52,North,0,2.0,5.0,68,0.00,,,0.00,meteohub,2013-04-10 12:26:00,
2013-04-10 06:31:00,11.7,3.2,31.52,West,270,4.0,4.0,68,0.00,,,0.00,meteohub,2013-04-10 12:31:00,
2013-04-10 06:37:00,11.5,3.0,31.52,West,270,6.0,6.0,68,0.00,,,0.00,meteohub,2013-04-10 12:37:00,
2013-04-10 06:42:00,11.5,2.7,31.52,NW,315,4.0,6.0,67,0.00,,,0.00,meteohub,2013-04-10 12:42:00,
2013-04-10 06:47:00,11.5,2.7,31.52,North,0,4.0,6.0,67,0.00,,,0.00,meteohub,2013-04-10 12:47:00,
2013-04-10 06:53:00,11.5,2.7,31.52,NW,315,4.0,6.0,67,0.00,,,0.00,meteohub,2013-04-10 12:53:00,
2013-04-10 06:58:00,11.5,2.3,31.52,West,270,4.0,8.0,66,0.00,,,0.00,meteohub,2013-04-10 12:58:00,
2013-04-10 07:03:00,11.7,2.5,31.52,SW,225,4.0,8.0,66,0.00,,,0.00,meteohub,2013-04-10 13:03:00,
2013-04-10 07:08:00,12.0,2.8,31.52,NW,315,3.0,8.0,66,0.00,,,0.00,meteohub,2013-04-10 13:08:00,
2013-04-10 07:14:00,12.9,3.4,31.52,West,270,3.0,5.0,65,0.00,,,0.00,meteohub,2013-04-10 13:14:00,
2013-04-10 07:20:00,13.3,3.4,31.52,West,270,4.0,7.0,64,0.00,,,0.00,meteohub,2013-04-10 13:20:00,
2013-04-10 07:25:00,13.6,3.7,31.52,SW,225,5.0,7.0,64,0.00,,,0.00,meteohub,2013-04-10 13:25:00,
2013-04-10 07:31:00,14.0,3.0,31.52,West,270,6.0,6.0,61,0.00,,,0.00,meteohub,2013-04-10 13:31:00,
2013-04-10 07:37:00,14.0,2.7,31.53,NW,315,5.0,6.0,60,0.00,,,0.00,meteohub,2013-04-10 13:37:00,
2013-04-10 07:42:00,14.0,2.3,31.53,West,270,2.0,6.0,59,0.00,,,0.00,meteohub,2013-04-10 13:42:00,
2013-04-10 07:47:00,14.2,2.5,31.53,SW,225,4.0,6.0,59,0.00,,,0.00,meteohub,2013-04-10 13:47:00,
2013-04-10 07:52:00,14.7,3.0,31.53,West,270,4.0,7.0,59,0.00,,,0.00,meteohub,2013-04-10 13:52:00,
2013-04-10 07:58:00,16.2,3.6,31.53,West,270,5.0,7.0,57,0.00,,,0.00,meteohub,2013-04-10 13:58:00,
2013-04-10 08:03:00,16.3,3.7,31.53,West,270,5.0,7.0,57,0.00,,,0.00,meteohub,2013-04-10 14:03:00,
2013-04-10 08:09:00,17.2,3.4,31.53,West,270,5.0,6.0,54,0.00,,,0.00,meteohub,2013-04-10 14:09:00,
2013-04-10 08:15:00,17.6,3.0,31.53,NW,315,8.0,8.0,52,0.00,,,0.00,meteohub,2013-04-10 14:15:00,
2013-04-10 08:20:00,18.0,2.8,31.53,NW,315,8.0,8.0,51,0.00,,,0.00,meteohub,2013-04-10 14:20:00,
2013-04-10 08:25:00,18.1,2.1,31.53,North,0,3.0,8.0,49,0.00,,,0.00,meteohub,2013-04-10 14:25:00,
2013-04-10 08:31:00,18.9,2.8,31.53,North,0,7.0,9.0,49,0.00,,,0.00,meteohub,2013-04-10 14:31:00,
2013-04-10 08:36:00,19.6,5.2,31.53,NW,315,3.0,9.0,53,0.00,,,0.00,meteohub,2013-04-10 14:36:00,
2013-04-10 08:42:00,20.1,4.8,31.53,NW,315,8.0,8.0,51,0.00,,,0.00,meteohub,2013-04-10 14:42:00,
2013-04-10 08:47:00,20.1,4.5,31.53,NW,315,4.0,10.0,50,0.00,,,0.00,meteohub,2013-04-10 14:47:00,
2013-04-10 08:52:00,21.0,5.4,31.53,NE,45,8.0,10.0,50,0.00,,,0.00,meteohub,2013-04-10 14:52:00,
2013-04-10 08:57:00,21.7,5.0,31.54,North,0,6.0,8.0,48,0.00,,,0.00,meteohub,2013-04-10 14:57:00,
2013-04-10 09:03:00,21.9,4.8,31.53,NW,315,7.0,9.0,47,0.00,,,0.00,meteohub,2013-04-10 15:03:00,
2013-04-10 09:08:00,22.5,5.4,31.54,NW,315,5.0,9.0,47,0.00,,,0.00,meteohub,2013-04-10 15:08:00,
2013-04-10 09:13:00,22.8,5.2,31.53,NW,315,2.0,9.0,46,0.00,,,0.00,meteohub,2013-04-10 15:13:00,
2013-04-10 09:18:00,23.5,5.4,31.53,North,0,5.0,9.0,45,0.00,,,0.00,meteohub,2013-04-10 15:18:00,
2013-04-10 09:24:00,23.9,5.7,31.53,NW,315,5.0,10.0,45,0.00,,,0.00,meteohub,2013-04-10 15:24:00,
2013-04-10 09:29:00,25.0,6.1,31.54,West,270,8.0,10.0,44,0.00,,,0.00,meteohub,2013-04-10 15:29:00,
2013-04-10 09:35:00,25.3,5.9,31.53,NW,315,6.0,10.0,43,0.00,,,0.00,meteohub,2013-04-10 15:35:00,
2013-04-10 09:40:00,25.7,5.7,31.53,WNW,293,7.0,8.0,42,0.00,,,0.00,meteohub,2013-04-10 15:40:00,
2013-04-10 09:46:00,26.2,6.8,31.53,North,0,4.0,8.0,43,0.00,,,0.00,meteohub,2013-04-10 15:46:00,
2013-04-10 09:52:00,26.8,6.3,31.53,North,0,4.0,10.0,41,0.00,,,0.00,meteohub,2013-04-10 15:52:00,
2013-04-10 09:57:00,27.5,6.8,31.54,NE,45,4.0,10.0,41,0.00,,,0.00,meteohub,2013-04-10 15:57:00,
2013-04-10 10:02:00,27.7,7.0,31.53,NW,315,6.0,10.0,41,0.00,,,0.00,meteohub,2013-04-10 16:02:00,
2013-04-10 10:07:00,28.4,8.8,31.54,WSW,248,7.0,8.0,43,0.00,,,0.00,meteohub,2013-04-10 16:07:00,
2013-04-10 10:12:00,28.9,8.8,31.54,North,0,4.0,8.0,42,0.00,,,0.00,meteohub,2013-04-10 16:12:00,
2013-04-10 10:17:00,28.9,7.7,31.54,SW,225,4.0,7.0,40,0.00,,,0.00,meteohub,2013-04-10 16:17:00,
2013-04-10 10:23:00,30.2,8.2,31.54,West,270,4.0,7.0,39,0.00,,,0.00,meteohub,2013-04-10 16:23:00,
2013-04-10 10:28:00,30.2,8.2,31.53,East,90,2.0,8.0,39,0.00,,,0.00,meteohub,2013-04-10 16:28:00,
2013-04-10 10:34:00,30.2,8.2,31.53,NNE,23,8.0,8.0,39,0.00,,,0.00,meteohub,2013-04-10 16:34:00,
2013-04-10 10:39:00,30.9,9.5,31.54,SW,225,5.0,9.0,40,0.00,,,0.00,meteohub,2013-04-10 16:39:00,
2013-04-10 10:45:00,32.2,10.6,31.54,ENE,68,6.0,9.0,40,0.00,,,0.00,meteohub,2013-04-10 16:45:00,
2013-04-10 10:50:00,32.0,9.9,31.53,North,0,4.0,9.0,39,0.00,,,0.00,meteohub,2013-04-10 16:50:00,
2013-04-10 10:56:00,32.4,10.8,31.54,NE,45,4.0,9.0,40,0.00,,,0.00,meteohub,2013-04-10 16:56:00,
2013-04-10 11:02:00,33.1,12.0,31.54,NE,45,5.0,11.0,41,0.00,,,0.00,meteohub,2013-04-10 17:02:00,
2013-04-10 11:07:00,33.3,10.9,31.53,NW,315,6.0,11.0,39,0.00,,,0.00,meteohub,2013-04-10 17:07:00,
2013-04-10 11:12:00,32.9,10.6,31.54,NW,315,8.0,11.0,39,0.00,,,0.00,meteohub,2013-04-10 17:12:00,
2013-04-10 11:17:00,32.5,9.7,31.54,NNW,338,6.0,11.0,38,0.00,,,0.00,meteohub,2013-04-10 17:17:00,
2013-04-10 11:22:00,32.5,10.4,31.54,West,270,7.0,11.0,39,0.00,,,0.00,meteohub,2013-04-10 17:22:00,
2013-04-10 11:27:00,32.4,9.5,31.54,West,270,5.0,11.0,38,0.00,,,0.00,meteohub,2013-04-10 17:27:00,
2013-04-10 11:32:00,32.4,9.5,31.53,NNE,23,3.0,9.0,38,0.00,,,0.00,meteohub,2013-04-10 17:32:00,
2013-04-10 11:37:00,31.6,10.0,31.53,North,0,4.0,9.0,40,0.00,,,0.00,meteohub,2013-04-10 17:37:00,
2013-04-10 11:43:00,31.3,9.1,31.53,North,0,8.0,9.0,39,0.00,,,0.00,meteohub,2013-04-10 17:43:00,
2013-04-10 11:49:00,31.8,11.3,31.53,NE,45,7.0,9.0,42,0.00,,,0.00,meteohub,2013-04-10 17:49:00,
2013-04-10 11:54:00,32.9,11.8,31.53,NE,45,7.0,9.0,41,0.00,,,0.00,meteohub,2013-04-10 17:54:00,
2013-04-10 12:00:00,32.2,9.5,31.52,West,270,6.0,9.0,38,0.00,,,0.00,meteohub,2013-04-10 18:00:00,
2013-04-10 12:05:00,32.2,9.5,31.52,West,270,6.0,7.0,38,0.00,,,0.00,meteohub,2013-04-10 18:05:00,
2013-04-10 12:11:00,30.4,9.5,31.52,North,0,7.0,7.0,41,0.00,,,0.00,meteohub,2013-04-10 18:11:00,
2013-04-10 12:17:00,31.3,11.3,31.52,North,0,5.0,11.0,43,0.00,,,0.00,meteohub,2013-04-10 18:17:00,
2013-04-10 12:22:00,31.5,11.5,31.52,East,90,4.0,11.0,43,0.00,,,0.00,meteohub,2013-04-10 18:22:00,
2013-04-10 12:27:00,32.0,12.0,31.52,North,0,7.0,11.0,43,0.00,,,0.00,meteohub,2013-04-10 18:27:00,
2013-04-10 12:32:00,31.8,12.4,31.52,NE,45,7.0,9.0,44,0.00,,,0.00,meteohub,2013-04-10 18:32:00,
2013-04-10 12:37:00,31.1,11.7,31.52,West,270,2.0,9.0,44,0.00,,,0.00,meteohub,2013-04-10 18:37:00,
2013-04-10 12:43:00,30.9,11.5,31.52,NNE,23,4.0,9.0,44,0.00,,,0.00,meteohub,2013-04-10 18:43:00,
2013-04-10 12:49:00,28.8,10.0,31.52,NE,45,6.0,9.0,45,0.00,,,0.00,meteohub,2013-04-10 18:49:00,
2013-04-10 12:54:00,28.2,8.1,31.52,North,0,8.0,9.0,42,0.00,,,0.00,meteohub,2013-04-10 18:54:00,
2013-04-10 12:59:00,28.2,8.6,31.52,SW,225,2.0,9.0,43,0.00,,,0.00,meteohub,2013-04-10 18:59:00,
2013-04-10 13:04:00,28.2,9.1,31.52,SW,225,4.0,9.0,44,0.00,,,0.00,meteohub,2013-04-10 19:04:00,
2013-04-10 13:10:00,28.2,9.7,31.52,NE,45,5.0,9.0,45,0.00,,,0.00,meteohub,2013-04-10 19:10:00,
2013-04-10 13:15:00,30.0,13.6,31.52,NW,315,3.0,9.0,50,0.00,,,0.00,meteohub,2013-04-10 19:15:00,
2013-04-10 13:21:00,32.4,13.8,31.52,ENE,68,6.0,10.0,46,0.00,,,0.00,meteohub,2013-04-10 19:21:00,
2013-04-10 13:26:00,33.1,14.0,31.51,NE,45,6.0,10.0,45,0.00,,,0.00,meteohub,2013-04-10 19:26:00,
2013-04-10 13:32:00,34.7,15.1,31.51,NE,45,4.0,10.0,44,0.00,,,0.00,meteohub,2013-04-10 19:32:00,
2013-04-10 13:36:00,35.2,14.4,31.51,NE,45,5.0,8.0,42,0.00,,,0.00,meteohub,2013-04-10 19:36:00,
2013-04-10 13:42:00,35.4,14.5,31.51,ENE,68,3.0,8.0,42,0.00,,,0.00,meteohub,2013-04-10 19:42:00,
2013-04-10 13:47:00,35.4,14.5,31.51,North,0,13.0,13.0,42,0.00,,,0.00,meteohub,2013-04-10 19:47:00,
2013-04-10 13:52:00,36.1,14.7,31.51,NNE,23,7.0,13.0,41,0.00,,,0.00,meteohub,2013-04-10 19:52:00,
2013-04-10 13:57:00,35.6,14.2,31.51,West,270,10.0,13.0,41,0.00,,,0.00,meteohub,2013-04-10 19:57:00,
2013-04-10 14:02:00,35.2,14.4,31.51,North,0,6.0,13.0,42,0.00,,,0.00,meteohub,2013-04-10 20:02:00,
2013-04-10 14:07:00,34.9,14.2,31.51,NW,315,6.0,10.0,42,0.00,,,0.00,meteohub,2013-04-10 20:07:00,
2013-04-10 14:13:00,34.7,14.5,31.51,NE,45,4.0,10.0,43,0.00,,,0.00,meteohub,2013-04-10 20:13:00,
2013-04-10 14:18:00,35.4,15.6,31.51,NE,45,8.0,8.0,44,0.00,,,0.00,meteohub,2013-04-10 20:18:00,
2013-04-10 14:24:00,36.0,14.5,31.51,WNW,293,5.0,12.0,41,0.00,,,0.00,meteohub,2013-04-10 20:24:00,
2013-04-10 14:30:00,35.6,14.2,31.52,WNW,293,8.0,13.0,41,0.00,,,0.00,meteohub,2013-04-10 20:30:00,
2013-04-10 14:35:00,35.4,14.5,31.51,NW,315,8.0,13.0,42,0.00,,,0.00,meteohub,2013-04-10 20:35:00,
2013-04-10 14:41:00,36.1,14.7,31.51,North,0,5.0,8.0,41,0.00,,,0.00,meteohub,2013-04-10 20:41:00,
2013-04-10 14:46:00,35.8,14.4,31.51,WNW,293,7.0,10.0,41,0.00,,,0.00,meteohub,2013-04-10 20:46:00,
2013-04-10 14:51:00,35.6,14.2,31.51,SW,225,5.0,11.0,41,0.00,,,0.00,meteohub,2013-04-10 20:51:00,
2013-04-10 14:56:00,35.8,12.7,31.51,North,0,4.0,11.0,38,0.00,,,0.00,meteohub,2013-04-10 20:56:00,
2013-04-10 15:02:00,35.8,10.2,31.51,NE,45,5.0,11.0,34,0.00,,,0.00,meteohub,2013-04-10 21:02:00,
2013-04-10 15:08:00,35.4,9.9,31.51,North,0,14.0,14.0,34,0.00,,,0.00,meteohub,2013-04-10 21:08:00,
2013-04-10 15:13:00,35.1,11.5,31.51,West,270,11.0,14.0,37,0.00,,,0.00,meteohub,2013-04-10 21:13:00,
2013-04-10 15:19:00,35.2,10.9,31.50,North,0,10.0,14.0,36,0.00,,,0.00,meteohub,2013-04-10 21:19:00,
2013-04-10 15:24:00,35.8,10.8,31.50,West,270,15.0,15.0,35,0.00,,,0.00,meteohub,2013-04-10 21:24:00,
2013-04-10 15:30:00,35.6,9.3,31.50,NW,315,10.0,11.0,33,0.00,,,0.00,meteohub,2013-04-10 21:30:00,
2013-04-10 15:35:00,35.4,9.1,31.50,NW,315,8.0,15.0,33,0.00,,,0.00,meteohub,2013-04-10 21:35:00,
2013-04-10 15:41:00,35.1,8.8,31.50,North,0,10.0,14.0,33,0.00,,,0.00,meteohub,2013-04-10 21:41:00,
2013-04-10 15:47:00,34.5,7.7,31.50,NW,315,5.0,11.0,32,0.00,,,0.00,meteohub,2013-04-10 21:47:00,
2013-04-10 15:52:00,34.7,9.9,31.50,South,180,4.0,15.0,35,0.00,,,0.00,meteohub,2013-04-10 21:52:00,
2013-04-10 15:57:00,35.8,12.7,31.50,NW,315,9.0,15.0,38,0.00,,,0.00,meteohub,2013-04-10 21:57:00,
2013-04-10 16:02:00,35.8,11.5,31.50,NW,315,10.0,15.0,36,0.00,,,0.00,meteohub,2013-04-10 22:02:00,
2013-04-10 16:07:00,35.2,10.9,31.49,NW,315,13.0,13.0,36,0.00,,,0.00,meteohub,2013-04-10 22:07:00,
2013-04-10 16:13:00,34.9,9.3,31.50,SW,225,9.0,13.0,34,0.00,,,0.00,meteohub,2013-04-10 22:13:00,
2013-04-10 16:19:00,34.0,8.6,31.50,North,0,8.0,13.0,34,0.00,,,0.00,meteohub,2013-04-10 22:19:00,
2013-04-10 16:24:00,33.3,9.1,31.49,NW,315,9.0,13.0,36,0.00,,,0.00,meteohub,2013-04-10 22:24:00,
2013-04-10 16:30:00,32.9,8.8,31.49,North,0,11.0,12.0,36,0.00,,,0.00,meteohub,2013-04-10 22:30:00,
2013-04-10 16:35:00,32.4,8.4,31.49,West,270,5.0,11.0,36,0.00,,,0.00,meteohub,2013-04-10 22:35:00,
2013-04-10 16:40:00,32.5,9.1,31.49,NW,315,10.0,12.0,37,0.00,,,0.00,meteohub,2013-04-10 22:40:00,
2013-04-10 16:46:00,32.0,7.5,31.49,North,0,8.0,12.0,35,0.00,,,0.00,meteohub,2013-04-10 22:46:00,
2013-04-10 16:52:00,31.8,7.3,31.49,NW,315,11.0,12.0,35,0.00,,,0.00,meteohub,2013-04-10 22:52:00,
2013-04-10 16:57:00,31.6,7.7,31.49,West,270,5.0,12.0,36,0.00,,,0.00,meteohub,2013-04-10 22:57:00,
2013-04-10 17:02:00,32.2,8.8,31.49,NW,315,4.0,12.0,37,0.00,,,0.00,meteohub,2013-04-10 23:02:00,
2013-04-10 17:07:00,31.8,8.4,31.49,North,0,9.0,12.0,37,0.00,,,0.00,meteohub,2013-04-10 23:07:00,
2013-04-10 17:13:00,30.9,7.7,31.50,SW,225,7.0,12.0,37,0.00,,,0.00,meteohub,2013-04-10 23:13:00,
2013-04-10 17:18:00,30.6,8.6,31.50,NW,315,9.0,11.0,39,0.00,,,0.00,meteohub,2013-04-10 23:18:00,
2013-04-10 17:23:00,30.0,8.1,31.50,NW,315,9.0,13.0,39,0.00,,,0.00,meteohub,2013-04-10 23:23:00,
2013-04-10 17:29:00,29.5,7.5,31.49,NW,315,6.0,13.0,39,0.00,,,0.00,meteohub,2013-04-10 23:29:00,
2013-04-10 17:34:00,29.1,7.9,31.49,NW,315,8.0,13.0,40,0.00,,,0.00,meteohub,2013-04-10 23:34:00,
2013-04-10 17:40:00,28.8,8.1,31.49,NW,315,8.0,12.0,41,0.00,,,0.00,meteohub,2013-04-10 23:40:00,
2013-04-10 17:45:00,28.6,8.4,31.49,NE,45,9.0,14.0,42,0.00,,,0.00,meteohub,2013-04-10 23:45:00,
2013-04-10 17:50:00,28.2,5.4,31.50,NW,315,9.0,14.0,37,0.00,,,0.00,meteohub,2013-04-10 23:50:00,
2013-04-10 17:56:00,28.0,5.7,31.50,NW,315,11.0,12.0,38,0.00,,,0.00,meteohub,2013-04-10 23:56:00,
2013-04-10 18:02:00,27.9,5.0,31.50,North,0,7.0,12.0,37,0.00,,,0.00,meteohub,2013-04-11 00:02:00,
2013-04-10 18:07:00,27.9,5.0,31.50,North,0,7.0,12.0,37,0.00,,,0.00,meteohub,2013-04-11 00:07:00,
2013-04-10 18:12:00,27.7,7.0,31.50,West,270,4.0,12.0,41,0.00,,,0.00,meteohub,2013-04-11 00:12:00,
2013-04-10 18:17:00,27.5,6.8,31.50,NW,315,10.0,10.0,41,0.00,,,0.00,meteohub,2013-04-11 00:17:00,
2013-04-10 18:23:00,27.3,7.2,31.50,NE,45,5.0,9.0,42,0.00,,,0.00,meteohub,2013-04-11 00:23:00,
2013-04-10 18:29:00,27.1,7.2,31.51,NE,45,9.0,10.0,42,0.00,,,0.00,meteohub,2013-04-11 00:29:00,
2013-04-10 18:34:00,26.8,7.3,31.51,NE,45,8.0,13.0,43,0.00,,,0.00,meteohub,2013-04-11 00:34:00,
2013-04-10 18:39:00,26.2,7.3,31.50,West,270,4.0,13.0,44,0.00,,,0.00,meteohub,2013-04-11 00:39:00,
2013-04-10 18:45:00,25.5,6.6,31.51,SW,225,6.0,10.0,44,0.00,,,0.00,meteohub,2013-04-11 00:45:00,
2013-04-10 18:50:00,24.8,6.4,31.51,SW,225,7.0,9.0,45,0.00,,,0.00,meteohub,2013-04-11 00:50:00,
2013-04-10 18:56:00,24.4,7.5,31.51,WSW,248,5.0,9.0,48,0.00,,,0.00,meteohub,2013-04-11 00:56:00,
2013-04-10 19:01:00,24.1,8.1,31.52,SW,225,7.0,9.0,50,0.00,,,0.00,meteohub,2013-04-11 01:01:00,
2013-04-10 19:07:00,23.7,8.6,31.52,West,270,8.0,10.0,52,0.00,,,0.00,meteohub,2013-04-11 01:07:00,
2013-04-10 19:12:00,23.4,8.8,31.52,NNW,338,8.0,11.0,53,0.00,,,0.00,meteohub,2013-04-11 01:12:00,
2013-04-10 19:17:00,23.2,8.6,31.53,ENE,68,4.0,11.0,53,0.00,,,0.00,meteohub,2013-04-11 01:17:00,
2013-04-10 19:22:00,23.0,8.8,31.53,West,270,6.0,11.0,54,0.00,,,0.00,meteohub,2013-04-11 01:22:00,
2013-04-10 19:27:00,22.6,9.0,31.53,WNW,293,4.0,8.0,55,0.00,,,0.00,meteohub,2013-04-11 01:27:00,
2013-04-10 19:33:00,22.3,9.0,31.53,SE,135,2.0,7.0,56,0.00,,,0.00,meteohub,2013-04-11 01:33:00,
2013-04-10 19:38:00,21.9,8.6,31.53,SE,135,3.0,6.0,56,0.00,,,0.00,meteohub,2013-04-11 01:38:00,
2013-04-10 19:43:00,21.4,8.6,31.53,SW,225,4.0,6.0,57,0.00,,,0.00,meteohub,2013-04-11 01:43:00,
2013-04-10 19:49:00,21.0,9.0,31.53,North,0,5.0,8.0,59,0.00,,,0.00,meteohub,2013-04-11 01:49:00,
2013-04-10 19:55:00,20.7,9.3,31.53,NNE,23,6.0,8.0,61,0.00,,,0.00,meteohub,2013-04-11 01:55:00,
2013-04-10 20:00:00,20.1,9.1,31.54,North,0,5.0,7.0,62,0.00,,,0.00,meteohub,2013-04-11 02:00:00,
2013-04-10 20:06:00,20.1,9.1,31.54,North,0,5.0,7.0,62,0.00,,,0.00,meteohub,2013-04-11 02:06:00,
2013-04-10 20:11:00,19.8,9.1,31.54,NE,45,5.0,7.0,63,0.00,,,0.00,meteohub,2013-04-11 02:11:00,
2013-04-10 20:17:00,19.6,9.7,31.54,NNE,23,5.0,5.0,65,0.00,,,0.00,meteohub,2013-04-11 02:17:00,
2013-04-10 20:22:00,19.4,9.5,31.55,West,270,7.0,7.0,65,0.00,,,0.00,meteohub,2013-04-11 02:22:00,
2013-04-10 20:27:00,19.4,9.5,31.55,North,0,4.0,7.0,65,0.00,,,0.00,meteohub,2013-04-11 02:27:00,
2013-04-10 20:32:00,19.2,8.1,31.55,NE,45,7.0,7.0,61,0.00,,,0.00,meteohub,2013-04-11 02:32:00,
2013-04-10 20:37:00,19.0,8.2,31.55,NE,45,5.0,7.0,62,0.00,,,0.00,meteohub,2013-04-11 02:37:00,
2013-04-10 20:42:00,18.9,8.1,31.55,North,0,3.0,7.0,62,0.00,,,0.00,meteohub,2013-04-11 02:42:00,
2013-04-10 20:47:00,18.7,7.9,31.55,NE,45,0.0,7.0,62,0.00,,,0.00,meteohub,2013-04-11 02:47:00,
2013-04-10 20:52:00,18.7,7.9,31.55,East,90,0.0,5.0,62,0.00,,,0.00,meteohub,2013-04-11 02:52:00,
2013-04-10 20:57:00,18.5,7.3,31.55,West,270,4.0,4.0,61,0.00,,,0.00,meteohub,2013-04-11 02:57:00,
2013-04-10 21:02:00,18.7,6.8,31.56,West,270,3.0,4.0,59,0.00,,,0.00,meteohub,2013-04-11 03:02:00,
2013-04-10 21:07:00,18.5,5.7,31.56,West,270,3.0,4.0,57,0.00,,,0.00,meteohub,2013-04-11 03:07:00,
2013-04-10 21:13:00,18.7,5.5,31.56,North,0,6.0,9.0,56,0.00,,,0.00,meteohub,2013-04-11 03:13:00,
2013-04-10 21:18:00,18.7,5.5,31.56,NW,315,8.0,9.0,56,0.00,,,0.00,meteohub,2013-04-11 03:18:00,
2013-04-10 21:24:00,18.7,5.2,31.56,West,270,7.0,9.0,55,0.00,,,0.00,meteohub,2013-04-11 03:24:00,
2013-04-10 21:29:00,18.7,4.8,31.57,NW,315,3.0,9.0,54,0.00,,,0.00,meteohub,2013-04-11 03:29:00,
2013-04-10 21:34:00,18.7,4.8,31.57,ENE,68,7.0,9.0,54,0.00,,,0.00,meteohub,2013-04-11 03:34:00,
2013-04-10 21:40:00,18.5,4.6,31.57,NW,315,9.0,9.0,54,0.00,,,0.00,meteohub,2013-04-11 03:40:00,
2013-04-10 21:45:00,18.3,4.5,31.57,North,0,6.0,9.0,54,0.00,,,0.00,meteohub,2013-04-11 03:45:00,
2013-04-10 21:51:00,18.1,3.9,31.57,East,90,6.0,9.0,53,0.00,,,0.00,meteohub,2013-04-11 03:51:00,
2013-04-10 21:57:00,18.0,3.7,31.57,NW,315,3.0,16.0,53,0.00,,,0.00,meteohub,2013-04-11 03:57:00,
2013-04-10 22:00:00,17.8,3.9,31.57,NE,45,3.0,16.0,54,0.00,,,0.00,meteohub,2013-04-11 04:00:00,
2013-04-10 22:01:00,17.8,3.9,31.57,NE,45,3.0,16.0,54,0.00,,,0.00,meteohub,2013-04-11 04:01:00,
2013-04-10 22:04:00,17.8,3.9,31.57,NE,45,3.0,16.0,54,0.00,,,0.00,meteohub,2013-04-11 04:04:00,
2013-04-10 22:08:00,17.4,4.5,31.57,SW,225,4.0,13.0,56,0.00,,,0.00,meteohub,2013-04-11 04:08:00,
2013-04-10 22:14:00,17.2,3.9,31.57,NE,45,4.0,7.0,55,0.00,,,0.00,meteohub,2013-04-11 04:14:00,
2013-04-10 22:19:00,17.2,3.9,31.57,NW,315,4.0,8.0,55,0.00,,,0.00,meteohub,2013-04-11 04:19:00,
2013-04-10 22:24:00,16.9,3.9,31.57,West,270,2.0,8.0,56,0.00,,,0.00,meteohub,2013-04-11 04:24:00,
2013-04-10 22:30:00,16.5,3.9,31.57,West,270,4.0,6.0,57,0.00,,,0.00,meteohub,2013-04-11 04:30:00,
2013-04-10 22:35:00,16.2,3.9,31.57,West,270,2.0,5.0,58,0.00,,,0.00,meteohub,2013-04-11 04:35:00,
2013-04-10 22:41:00,16.0,4.1,31.56,South,180,2.0,5.0,59,0.00,,,0.00,meteohub,2013-04-11 04:41:00,
2013-04-10 22:47:00,15.8,4.1,31.56,NNW,338,4.0,5.0,59,0.00,,,0.00,meteohub,2013-04-11 04:47:00,
2013-04-10 22:52:00,15.6,4.3,31.57,NW,315,4.0,5.0,60,0.00,,,0.00,meteohub,2013-04-11 04:52:00,
2013-04-10 22:57:00,15.6,4.3,31.57,NW,315,2.0,5.0,60,0.00,,,0.00,meteohub,2013-04-11 04:57:00,
2013-04-10 23:02:00,15.6,4.3,31.57,West,270,3.0,5.0,60,0.00,,,0.00,meteohub,2013-04-11 05:02:00,
2013-04-10 23:07:00,15.4,4.1,31.56,North,0,5.0,6.0,60,0.00,,,0.00,meteohub,2013-04-11 05:07:00,
2013-04-10 23:12:00,15.4,4.1,31.56,SW,225,3.0,6.0,60,0.00,,,0.00,meteohub,2013-04-11 05:12:00,
2013-04-10 23:17:00,15.4,4.1,31.56,NW,315,3.0,6.0,60,0.00,,,0.00,meteohub,2013-04-11 05:17:00,
2013-04-10 23:22:00,15.4,3.7,31.55,West,270,2.0,5.0,59,0.00,,,0.00,meteohub,2013-04-11 05:22:00,
2013-04-10 23:27:00,15.4,3.7,31.55,North,0,6.0,6.0,59,0.00,,,0.00,meteohub,2013-04-11 05:27:00,
2013-04-10 23:32:00,15.3,3.6,31.55,East,90,3.0,7.0,59,0.00,,,0.00,meteohub,2013-04-11 05:32:00,
2013-04-10 23:37:00,15.4,3.7,31.55,West,270,2.0,7.0,59,0.00,,,0.00,meteohub,2013-04-11 05:37:00,
2013-04-10 23:42:00,15.4,3.7,31.54,West,270,4.0,7.0,59,0.00,,,0.00,meteohub,2013-04-11 05:42:00,
2013-04-10 23:47:00,15.4,3.7,31.55,NW,315,7.0,7.0,59,0.00,,,0.00,meteohub,2013-04-11 05:47:00,
2013-04-10 23:52:00,15.6,3.6,31.54,SW,225,2.0,8.0,58,0.00,,,0.00,meteohub,2013-04-11 05:52:00,
2013-04-10 23:58:00,15.8,2.8,31.54,North,0,4.0,8.0,56,0.00,,,0.00,meteohub,2013-04-11 05:58:00,